Vorticity
13 15 8 8 23 31 13 -3 10 17 43 0 -25 9 -1 15 11 0 10 10 21 15 16 11 -3 5 4 17 13 16 -5 7 3 -10 1 13 15 1 5 -24 19 2 -2 -21
13 13 6 16 19 42 18 21 6 23 -7 39 -19 32 4 24 -8 5 2 20 6 19 11 14 -6 19 13 7 10 7 12 12 11 28 28 35 6 13 12 8 3 5 -14 -26
11 12 8 13 11 6 13 -18 18 20 -12 31 8 9 13 4 -6 14 1 3 12 7 11 5 15 7 15 16 9 -1 1 5 -20 -29 -23 -29 -6 -5 1 9 9 5 -2 -0
12 10 10 12 2 26 22 18 7 -2 4 20 -17 15 7 5 1 15 3 8 6 -1 16 5 8 6 2 6 12 13 3 3 6 -2 4 9 18 12 10 18 6 3 -12 -2
14 8 11 9 -5 22 21 14 -3 3 23 21 -9 -16 6 5 4 6 7 7 9 11 14 -4 24 17 7 2 23 9 12 -1 0 -2 52 14 4 27 50 48 30 28 39 18
23 10 7 15 5 1 19 -2 17 6 17 4 8 17 14 9 2 10 16 7 6 15 9 4 12 6 -2 -3 0 11 4 7 -3 26 -7 11 53 -2 24 15 12 15 22 38
42 15 9 11 12 5 3 17 7 15 7 9 12 8 -3 13 2 7 13 20 9 10 5 2 9 11 7 9 4 9 -4 11 9 -2 48 16 -20 1 14 20 12 12 25 24
21 35 11 7 10 7 4 26 11 7 26 6 10 31 21 3 8 -5 3 11 4 6 10 16 20 16 22 20 44 18 15 -10 -2 2 -4 -11 33 -5 13 17 25 6 21 23
13 26 31 10 10 5 5 14 4 16 -0 14 14 2 6 8 16 13 -7 9 12 9 5 12 9 10 7 20 14 15 29 5 -3 -11 11 6 -6 1 17 18 -1 30 29 7
7 15 28 27 10 10 8 1 8 14 14 12 -2 -8 7 -4 -6 0 10 12 3 19 16 6 11 10 -0 14 10 17 9 30 12 16 1 10 -4 15 29 12 -17 15 6 7
5 11 16 33 23 12 8 4 10 4 13 17 12 9 12 12 -5 8 7 11 19 14 10 5 11 10 10 9 4 1 4 9 12 29 7 22 -24 21 14 3 18 20 -10 5
5 13 16 18 42 16 10 6 7 6 0 13 12 16 14 19 8 3 -7 0 -2 1 7 6 10 7 3 1 19 17 13 -7 6 -5 6 -5 11 11 8 7 25 14 8 0
6 15 24 20 25 39 17 12 -0 12 2 17 19 9 12 -2 1 -4 5 11 9 10 13 12 11 17 5 2 23 9 18 10 -3 3 2 1 6 18 8 6 27 23 11 4
7 22 31 24 5 24 37 22 3 14 -10 2 16 15 15 5 5 16 7 3 15 1 8 3 0 18 19 5 6 -9 -1 4 11 3 20 10 -3 18 11 6 18 20 10 11
8 31 17 5 2 18 44 25 14 17 -10 42 -4 17 19 13 3 15 11 8 2 15 7 4 -12 9 15 26 2 15 6 8 6 -5 4 -1 11 14 13 8 13 13 11 16
13 35 13 5 6 25 37 24 15 10 5 8 13 19 18 9 -1 10 11 18 8 10 11 8 -4 10 18 17 9 23 7 14 10 3 -2 15 9 13 14 11 12 14 10 7
26 24 20 18 27 22 38 18 45 6 9 6 3 9 16 10 14 12 9 8 5 11 11 7 7 18 26 10 0 -7 8 11 19 12 -7 -0 12 12 13 8 11 12 13 11
24 36 37 29 24 26 37 11 32 8 2 4 12 12 17 13 10 12 13 13 20 6 10 7 3 10 23 25 55 27 23 21 19 -5 9 10 14 10 14 2 4 6 12 6
23 36 31 23 21 32 29 16 29 6 -8 2 16 4 19 21 11 19 15 18 9 11 6 12 26 2 -6 -12 -2 15 21 20 19 17 17 11 16 5 10 14 13 6 9 13
31 15 13 22 33 34 -9 9 28 -1 4 7 2 3 16 14 13 8 5 10 14 10 17 21 15 14 25 40 16 -0 4 8 12 21 28 26 20 8 8 13 11 10 9 14
31 37 34 33 21 5 -3 15 6 21 19 19 8 9 6 3 7 8 9 11 8 11 9 14 11 0 7 5 23 37 1 -4 7 9 36 23 2 12 5 17 11 9 7 13
18 14 9 -7 -4 3 14 11 11 13 12 15 19 11 8 2 4 5 11 14 12 9 10 14 9 7 4 14 21 21 46 25 -0 6 10 21 8 13 9 17 15 -1 30 4
6 -5 2 9 10 11 10 15 13 13 18 8 19 21 9 6 4 6 8 12 9 10 15 10 4 3 10 17 18 24 17 11 5 11 13 34 35 10 15 19 -5 12 15 2
3 6 12 9 13 15 16 18 17 2 14 4 3 6 6 7 25 6 8 12 12 12 12 6 7 15 14 23 25 16 18 20 8 14 12 10 7 25 10 10 1 16 14 10
7 7 12 12 19 12 13 16 18 3 5 11 25 14 -2 15 -2 18 7 12 14 9 1 6 12 8 8 11 26 21 30 11 14 8 8 11 14 16 11 14 17 14 11 7
14 6 11 11 6 9 10 13 18 16 4 12 7 23 13 5 5 13 5 10 11 4 5 19 6 3 2 2 11 17 24 24 13 8 5 3 8 12 17 13 14 12 8 6
10 20 15 10 10 3 5 7 9 11 11 12 -7 10 7 14 13 9 8 -3 -10 -7 -1 8 5 2 -2 -1 -4 6 12 20 21 22 16 9 6 11 14 11 13 14 6 4
Height
2974 2968 2964 2959 2952 2948 2947 2948 2948 2951 2953 2960 2963 2968 2969 2973 2977 2980 2985 2988 2992 2995 2998 3001 3005 3008 3009 3009 3013 3015 3019 3019 3018 3016 3017 3018 3020 3018 3020 3019 3011 3006 2999 2966
2973 2969 2965 2961 2955 2951 2950 2949 2952 2957 2960 2966 2967 2970 2972 2976 2981 2984 2988 2989 2991 2993 2997 3002 3004 3006 3006 3008 3011 3014 3015 3016 3016 3012 3014 3014 3014 3013 3013 3007 3004 2990 2994 2966
2975 2971 2968 2964 2961 2957 2957 2956 2957 2961 2964 2969 2973 2975 2979 2981 2984 2987 2989 2991 2993 2995 2998 2999 3003 3003 3005 3007 3010 3011 3013 3013 3012 3010 3009 3012 3009 3005 3003 3000 2993 2981 2971 2964
2976 2972 2970 2968 2966 2963 2963 2962 2964 2966 2971 2973 2976 2979 2983 2985 2987 2989 2991 2993 2994 2996 2998 3000 3002 3003 3005 3006 3007 3009 3011 3008 3008 3005 3003 3002 2998 2993 2989 2987 2981 2979 2956 2965
2978 2974 2973 2972 2971 2969 2970 2967 2968 2971 2972 2975 2980 2983 2986 2988 2989 2991 2992 2994 2994 2995 2999 3001 3001 3003 3004 3005 3005 3006 3006 3005 3004 2997 2994 2994 2989 2985 2980 2976 2972 2966 2960 2949
2980 2976 2974 2974 2974 2975 2973 2973 2973 2974 2975 2979 2983 2986 2988 2989 2990 2991 2992 2993 2994 2995 2997 2998 2999 3000 3001 3002 3003 3003 3004 3004 3003 2993 2992 2989 2983 2979 2974 2971 2966 2961 2953 2947
2982 2978 2976 2975 2975 2976 2976 2974 2975 2976 2977 2980 2983 2984 2987 2989 2990 2992 2993 2993 2994 2996 2997 2997 2997 2997 2998 2998 2999 3000 3000 3001 3002 2993 2990 2984 2981 2976 2972 2968 2963 2959 2953 2946
2986 2978 2976 2976 2975 2975 2973 2975 2973 2975 2977 2980 2981 2983 2986 2988 2989 2991 2993 2993 2994 2995 2996 2996 2996 2996 2995 2994 2994 2995 2998 3000 2999 2997 2992 2983 2978 2975 2971 2967 2964 2960 2953 2947
2987 2979 2975 2974 2974 2973 2973 2973 2974 2976 2977 2979 2981 2984 2986 2988 2990 2991 2992 2993 2993 2994 2995 2996 2996 2994 2994 2994 2993 2993 2994 2996 2999 2996 2995 2985 2979 2975 2971 2968 2967 2962 2958 2953
2988 2980 2973 2971 2971 2970 2970 2970 2971 2972 2974 2976 2978 2982 2984 2986 2989 2991 2991 2991 2992 2992 2993 2995 2996 2994 2994 2993 2992 2991 2992 2993 2993 2994 2994 2984 2978 2975 2972 2970 2973 2964 2961 2959
2986 2979 2972 2967 2965 2965 2966 2967 2967 2970 2970 2973 2974 2977 2980 2983 2987 2989 2990 2992 2991 2992 2993 2994 2994 2993 2992 2991 2990 2990 2991 2991 2990 2991 2990 2984 2978 2976 2974 2972 2969 2966 2965 2963
2980 2975 2968 2962 2959 2958 2959 2962 2963 2964 2968 2970 2971 2973 2975 2979 2984 2987 2988 2990 2990 2991 2991 2992 2991 2990 2990 2990 2988 2987 2988 2987 2986 2986 2983 2980 2977 2975 2973 2970 2967 2966 2966 2965
2973 2968 2961 2955 2952 2950 2950 2953 2957 2961 2963 2967 2968 2970 2974 2976 2980 2983 2986 2987 2988 2988 2989 2989 2989 2988 2987 2987 2985 2985 2982 2982 2981 2982 2980 2977 2975 2972 2971 2969 2966 2965 2966 2967
2967 2961 2953 2949 2947 2945 2943 2946 2951 2957 2960 2963 2966 2966 2970 2974 2977 2980 2982 2984 2984 2985 2986 2986 2985 2985 2984 2982 2981 2980 2980 2979 2979 2979 2977 2976 2973 2971 2970 2969 2967 2966 2966 2967
2959 2953 2947 2944 2941 2939 2936 2939 2945 2952 2959 2959 2963 2964 2967 2971 2974 2976 2979 2980 2981 2982 2983 2983 2981 2981 2980 2977 2976 2971 2974 2975 2976 2977 2975 2974 2972 2970 2969 2969 2967 2967 2967 2967
2952 2945 2940 2936 2934 2932 2932 2935 2940 2948 2954 2958 2961 2963 2965 2968 2972 2974 2975 2977 2978 2979 2979 2978 2977 2976 2977 2972 2967 2966 2969 2971 2972 2972 2972 2971 2970 2969 2969 2969 2968 2968 2968 2968
2944 2936 2929 2927 2925 2926 2927 2933 2937 2945 2951 2957 2960 2961 2963 2966 2969 2970 2972 2973 2975 2976 2975 2973 2973 2973 2970 2964 2958 2963 2964 2965 2966 2967 2968 2969 2968 2968 2968 2969 2968 2969 2969 2969
2938 2927 2920 2919 2919 2922 2926 2932 2936 2943 2951 2956 2958 2959 2962 2963 2965 2968 2969 2970 2971 2971 2971 2969 2968 2966 2964 2956 2953 2956 2958 2959 2960 2962 2962 2964 2965 2966 2967 2968 2968 2969 2969 2969
2934 2924 2920 2919 2919 2921 2927 2934 2938 2944 2951 2952 2955 2958 2960 2961 2964 2965 2967 2968 2969 2968 2966 2965 2964 2959 2955 2953 2952 2952 2952 2953 2955 2956 2957 2959 2960 2963 2964 2965 2967 2967 2968 2968
2933 2927 2924 2922 2923 2927 2934 2939 2941 2946 2949 2952 2955 2958 2959 2962 2963 2964 2967 2967 2967 2964 2963 2960 2956 2950 2948 2947 2948 2950 2950 2950 2951 2951 2951 2953 2956 2959 2961 2963 2964 2966 2967 2967
2935 2930 2928 2928 2931 2935 2939 2941 2944 2947 2950 2952 2955 2958 2959 2962 2963 2964 2965 2965 2964 2962 2962 2958 2953 2949 2948 2947 2946 2946 2947 2949 2949 2949 2948 2949 2952 2955 2958 2960 2962 2964 2965 2967
2941 2938 2938 2938 2939 2941 2942 2942 2945 2947 2950 2951 2953 2956 2958 2961 2962 2964 2964 2963 2963 2959 2958 2956 2950 2950 2948 2946 2944 2942 2942 2945 2947 2948 2949 2949 2951 2954 2956 2958 2960 2962 2964 2965
2944 2942 2941 2940 2941 2941 2941 2942 2943 2945 2946 2948 2950 2953 2956 2958 2961 2962 2963 2961 2960 2958 2956 2952 2951 2950 2948 2945 2943 2942 2942 2943 2945 2947 2947 2945 2946 2951 2954 2955 2959 2961 2963 2965
2944 2943 2942 2940 2939 2939 2938 2940 2941 2943 2945 2947 2949 2952 2955 2957 2959 2960 2960 2959 2958 2955 2952 2951 2950 2949 2946 2944 2942 2941 2941 2943 2945 2946 2946 2947 2948 2949 2952 2955 2958 2960 2962 2964
2942 2941 2940 2939 2939 2938 2938 2939 2941 2943 2945 2947 2949 2952 2955 2956 2958 2958 2957 2956 2952 2950 2950 2949 2948 2947 2946 2944 2942 2941 2941 2944 2945 2946 2947 2948 2949 2950 2952 2954 2956 2958 2960 2963
2939 2938 2937 2938 2938 2939 2939 2939 2940 2942 2945 2947 2949 2951 2953 2953 2954 2954 2953 2952 2949 2949 2948 2948 2948 2947 2946 2945 2943 2942 2941 2942 2944 2945 2946 2947 2948 2949 2950 2952 2954 2956 2959 2961
2934 2934 2934 2936 2937 2938 2939 2940 2940 2941 2944 2945 2948 2948 2948 2949 2949 2948 2947 2947 2948 2947 2947 2946 2946 2945 2945 2944 2943 2943 2942 2941 2941 2942 2943 2944 2946 2947 2948 2950 2952 2954 2956 2959